Regional Weather Roundup
Issued by NWS

Home | Current Version | Previous Version | Graphics & Text | Print | Product List | Glossary On
Versions: 1 2 3 4 5 6 7 8 9 10 11 12 13 14 15 16 17 18 19 20 21 22 23 24 25 26 27 28 29 30 31 32 33 34 35 36 37 38 39 40 41 42 43 44 45 46 47 48 49 50
000
ASUS43 KMPX 202210
RWRMN
WEATHER ROUNDUP FOR MINNESOTA
NATIONAL WEATHER SERVICE TWIN CITIES/CHANHASSEN MN
500 PM CDT SAT SEP 20 2014


NOTE: "FAIR" INDICATES FEW OR NO CLOUDS BELOW 12,000 FEET WITH NO
SIGNIFICANT WEATHER AND/OR OBSTRUCTIONS TO VISIBILITY. N/A MEANS
CURRENT SKY AND/OR WEATHER CONDITIONS ARE NOT AVAILABLE.

MNZ060>063-068>070-202300-
   Twin Cities Metro

CITY           SKY/WX    TMP DP  RH WIND       PRES   REMARKS
TWIN CITIES    PTSUNNY   73  53  49 W10       29.74S
ST PAUL        SUNNY     73  53  49 W10       29.73F
CRYSTAL        MOSUNNY   74  54  49 W10       29.74R
BLAINE         MOSUNNY   73  55  53 W10       29.74S
LAKEVILLE      SUNNY     72  55  56 W5        29.75S
EDEN PRAIRIE   MOSUNNY   72  56  57 W6        29.74S
SOUTH ST PAUL  SUNNY     74  51  44 W7        29.73F
LAKE ELMO      FAIR      72  55  56 W3        29.74F
$$
MNZ001>005-007-008-013>017-022>024-027-028-202300-
   Northwest Minnesota

CITY           SKY/WX    TMP DP  RH WIND       PRES   REMARKS
BEMIDJI        CLOUDY    56  54  94 W18G24    29.73S
HALLOCK        PTSUNNY   61  54  77 NW18G26   29.80R
ROSEAU         HVY RAIN  54  48  82 N9        29.76R
WARROAD        RAIN      54  50  87 NW8       29.76R
THIEF RVR FALL CLOUDY    59  52  77 NW18G29   29.78R
CROOKSTON      MOSUNNY   64  52  63 NW24G35   29.80S
FOSSTON        PTSUNNY   59  52  77 W16G31    29.79R
DETROIT LAKES  MOSUNNY   59  52  77 NW20G29   29.83R
MOORHEAD       MOSUNNY   66  54  63 NW17G25   29.84S
PARK RAPIDS    CLOUDY    57  54  89 NW22G28   29.76S
MAHNOMEN       MOCLDY    59  50  72 NW17G33   29.80S
$$
MNZ006-009>011-018-025>026-202300-
   North Central Minnesota

CITY           SKY/WX    TMP DP  RH WIND       PRES   REMARKS
BAUDETTE       CLOUDY    54  48  80 NW8       29.72R
FLAG ISLAND    RAIN      55  48  76 NW5       29.73R VSB 1
INTL FALLS     PTSUNNY   60  47  61 CALM      29.70S
WASKISH        RAIN      55  54  94 CALM      29.69S
BIG FORK       PTSUNNY   63  54  72 CALM      29.68F
LONGVILLE      TSTM      55  54  94 NW3       29.73F
GRAND RAPIDS   CLOUDY    63  52  67 CALM      29.69F
CRANE LAKE     CLOUDY    57  48  72 CALM      29.71F
ORR            PTSUNNY   61  46  59 CALM      29.67S
COOK           PTSUNNY   63  45  51 W3        29.69S
WALKER         CLOUDY    55  53  92 W10G17    29.74S
$$
MNZ012-019>021-037-202300-
   Northeast Minnesota

CITY           SKY/WX    TMP DP  RH WIND       PRES   REMARKS
DULUTH         MOSUNNY   68  49  50 W9        29.70F
ELY            PTSUNNY   57  48  72 CALM      29.70F
HIBBING        MOSUNNY   65  48  54 W5        29.69F
EVELETH        PTSUNNY   63  45  51 SW8       29.70F
DULUTH HARBOR  MOSUNNY   70  54  56 SW12      29.69S
TWO HARBORS    PTSUNNY   63  52  67 E6        29.68F
SILVER BAY     PTSUNNY   61  55  82 S7        29.68S
GRAND MARAIS     N/A     59  52  77 CALM      29.66R
G MARAIS ARPRT MOSUNNY   59  48  67 W6        29.69S
$$
MNZ029>031-032-039>041-046>048-054>057-064-202300-
   West Central Minnesota

CITY           SKY/WX    TMP DP  RH WIND       PRES   REMARKS
FERGUS FALLS   MOSUNNY   63  52  67 N20G33    29.84S
WHEATON        SUNNY     64  54  68 NW22G29   29.87R
ALEXANDRIA     PTSUNNY   61  58  90 NW20G26   29.83R
ELBOW LAKE     PTSUNNY   63  55  74 NW22G33   29.84R
WADENA         PTSUNNY   59  54  82 NW15G22   29.79R
GLENWOOD       CLOUDY    61  59  94 NW14G22   29.83R
APPLETON       PTSUNNY   66  57  72 NW17G23   29.85R
BENSON         CLOUDY    61  59  94 N13G18    29.82F
ORTONVILLE     MOSUNNY   64  57  77 NW14G21   29.86R
MADISON        PTSUNNY   64  59  82 N14G20    29.86R
WILLMAR        RAIN      59  57  94 N14G24    29.83F
$$
MNZ033>034-036-042>043-049>051-058-059-202300-
   Central Minnesota

CITY           SKY/WX    TMP DP  RH WIND       PRES   REMARKS
ST CLOUD       RAIN      62  56  80 W16G35    29.80R
SAUK CENTRE    MOCLDY    58  56  93 NW8       29.80F
PAYNESVILLE    RAIN      56  55  95 W6        29.82F
AITKIN         MIX PCPN  59  54  82 W5G23     29.75R
PINE RIVER     CLOUDY    54  54 100 W8        29.79F
BRAINERD       LGT RAIN  55  53  93 W8        29.77F
STAPLES        CLOUDY    55  54  94 W14G21    29.79F
LONG PRAIRIE   PTSUNNY   59  55  88 W10       29.81S
LITTLE FALLS   LGT RAIN  59  55  88 NW14G23   29.79R
LITCHFIELD     LGT RAIN  57  57 100 NW17G26   29.83R
BUFFALO        LGT RAIN  70  57  63 W5        29.77R
MAPLE LAKE     RAIN      67  60  77 W8        29.80R
$$
MNZ037-044-045-052-053-202300-
   East Central Minnesota

CITY           SKY/WX    TMP DP  RH WIND       PRES   REMARKS
PRINCETON      CLOUDY    72  55  56 W7        29.75S
MORA           CLOUDY    64  54  68 W3        29.75S
CAMBRIDGE      PTSUNNY   72  55  56 W5        29.72F
RUSH CITY      MOSUNNY   68  56  65 NW5       29.73F
MOOSE LAKE     MOSUNNY   64  54  68 SW5       29.70F
HINCKLEY       FAIR      68  55  64 W5        29.73F
CLOQUET        MOSUNNY   64  48  55 W8        29.71S
MCGREGOR       PTSUNNY   64  55  72 CALM      29.72F
$$
MNZ071>073-080-081-089-090-097-098-202300-
   Southwest Minnesota

CITY           SKY/WX    TMP DP  RH WIND       PRES   REMARKS
MONTEVIDEO     LGT RAIN  61  57  88 N10G22    29.85S
GRANITE FALLS  RAIN      60  57  91 NW16G29   29.85R
CANBY          PTSUNNY   64  58  82 NW16G23   29.88R
MARSHALL       PTSUNNY   75  54  46 N33G44    29.83R
REDWOOD FALLS  TSTM      60  58  92 N15G32    29.83R FOG
OLIVIA         TSTM      59  55  88 N23G37    29.83R
PIPESTONE      MOSUNNY   81  45  28 NW31G40   29.84R
WINDOM         MOSUNNY   81  52  36 SW24G30   29.78F
WORTHINGTON    MOSUNNY   79  54  41 W16       29.84S
JACKSON        MOSUNNY   81  48  32 W16G25    29.82F
TRACY          MOSUNNY   81  55  40 W10G24    29.78S
SLAYTON        MOSUNNY   75  53  45 W16G23    29.82S
$$
MNZ065>067-074>077-082>085-091>093-202300-
   South Central Minnesota

CITY           SKY/WX    TMP DP  RH WIND       PRES   REMARKS
MANKATO        MOSUNNY   79  54  41 W7        29.74F
NEW ULM        MOSUNNY   79  55  44 W22G28    29.72F
FAIRMONT       MOSUNNY   81  45  28 W15G23    29.78F
GLENCOE        HVY RAIN  73  54  50 W5        29.73F
FARIBAULT      MOSUNNY   79  48  34 W9        29.77S
OWATONNA       SUNNY     79  54  41 W12       29.77S
WASECA         SUNNY     77  48  36 W12G17    29.78F
ALBERT LEA     SUNNY     79  55  44 W7        29.78F
$$
MNZ078>079-086>088-094>096-202300-
   Southeast Minnesota

CITY           SKY/WX    TMP DP  RH WIND       PRES   REMARKS
ROCHESTER      SUNNY     76  55  48 W12       29.79F
RED WING       SUNNY     75  52  43 W9        29.73S
STANTON        SUNNY     75  52  44 W10       29.74F
DODGE CENTER   SUNNY     75  55  50 W10       29.78F
WINONA         SUNNY     77  54  44 W6        29.75S
AUSTIN         MOSUNNY   75  55  50 W9        29.79S
PRESTON        SUNNY     74  59  60 W14       29.79F
$$
ABBREVIATIONS USED IN REMARKS
   TC - TEMPERATURES IN CELSIUS
  WCI - WIND CHILL INDEX
   HX - HEAT INDEX
  VSB - VISIBILITY
$$


USA.gov is the U.S. government's official web portal to all federal, state and local government web resources and services.